EIN6374 EIDW-LOWW

Flight info

Callsign EIN6374
Flight time N/A
Altitude 37000
Route ENDEQ1E ENDEQ Q36 ALAVA Z195 MALUD UL975 WAL M16 DOLAS L603 LAMSO DCT NOMKA DCT TALEG L620 PIKIB DCT OMELO DCT EVIKU DCT BITSI DCT MIKOV MIKOV8W
Aircraft A320/M-SDE3FGHIRWY/LB1

Departure

Time N/A
Airport Dublin Airport (EIDW)

Arrival

Time 2026-05-06 19:31
Airport Vienna International Airport (LOWW)
Time Latitude Longitude Altitude Speed Heading
2026-05-06 18:23 51.72230 9.07032 36837 ft 471 kts 109°
2026-05-06 18:24 51.70347 9.17163 36826 ft 472 kts 109°
2026-05-06 18:24 51.68464 9.27298 36834 ft 472 kts 109°
2026-05-06 18:25 51.66573 9.37418 36830 ft 472 kts 110°
2026-05-06 18:25 51.64688 9.47459 36828 ft 472 kts 110°
2026-05-06 18:26 51.62778 9.57562 36830 ft 471 kts 110°
2026-05-06 18:26 51.60966 9.67094 36833 ft 471 kts 110°
2026-05-06 18:27 51.59038 9.77157 36817 ft 471 kts 110°
2026-05-06 18:27 51.57101 9.87205 36818 ft 471 kts 110°
2026-05-06 18:28 51.55174 9.97188 36825 ft 471 kts 110°
2026-05-06 18:28 51.53228 10.07235 36820 ft 471 kts 110°
2026-05-06 18:29 51.51318 10.17033 36806 ft 471 kts 111°
2026-05-06 18:29 51.49354 10.27060 36803 ft 471 kts 111°
2026-05-06 18:30 51.47381 10.37071 36800 ft 471 kts 111°
2026-05-06 18:30 51.45390 10.47073 36801 ft 471 kts 111°
2026-05-06 18:31 51.43521 10.57064 36799 ft 472 kts 108°
2026-05-06 18:31 51.41956 10.67297 36784 ft 473 kts 107°
2026-05-06 18:32 51.40438 10.77557 36787 ft 473 kts 108°
2026-05-06 18:32 51.38833 10.87784 36793 ft 473 kts 108°
2026-05-06 18:33 51.37167 10.97982 36799 ft 473 kts 109°
2026-05-06 18:33 51.35493 11.08170 36771 ft 474 kts 109°
2026-05-06 18:34 51.33838 11.18294 36789 ft 473 kts 109°
2026-05-06 18:34 51.32163 11.28465 36797 ft 473 kts 109°
2026-05-06 18:35 51.30483 11.38629 36802 ft 473 kts 109°
2026-05-06 18:35 51.28798 11.48793 36806 ft 473 kts 109°
2026-05-06 18:36 51.27113 11.58884 36789 ft 474 kts 109°
2026-05-06 18:36 51.25396 11.69038 36792 ft 474 kts 109°
2026-05-06 18:37 51.23672 11.79197 36790 ft 474 kts 109°
2026-05-06 18:37 51.21944 11.89340 36790 ft 474 kts 109°
2026-05-06 18:38 51.20207 11.99469 36765 ft 474 kts 109°
2026-05-06 18:38 51.18472 12.09550 36765 ft 475 kts 110°
2026-05-06 18:39 51.16709 12.19713 36759 ft 476 kts 110°
2026-05-06 18:40 51.14056 12.34955 36758 ft 477 kts 110°
2026-05-06 18:40 51.12270 12.45130 36736 ft 477 kts 110°
2026-05-06 18:41 51.10469 12.55294 36742 ft 477 kts 111°
2026-05-06 18:41 51.08662 12.65388 36749 ft 477 kts 111°
2026-05-06 18:42 51.06835 12.75536 36755 ft 477 kts 111°
2026-05-06 18:42 51.04998 12.85682 36776 ft 478 kts 111°
2026-05-06 18:42 51.04074 12.90754 36425 ft 478 kts 111°
2026-05-06 18:43 51.03151 12.95821 36018 ft 477 kts 111°
2026-05-06 18:43 51.02226 13.00880 35619 ft 477 kts 111°
2026-05-06 18:43 51.01298 13.05930 35226 ft 477 kts 111°
2026-05-06 18:43 51.00362 13.10998 34873 ft 477 kts 111°
2026-05-06 18:44 50.99426 13.16049 34746 ft 477 kts 111°
2026-05-06 18:44 50.97561 13.26102 34782 ft 478 kts 111°
2026-05-06 18:45 50.95689 13.36223 34792 ft 477 kts 111°
2026-05-06 18:45 50.93886 13.46339 34784 ft 476 kts 110°
2026-05-06 18:46 50.92087 13.56441 34776 ft 476 kts 111°
2026-05-06 18:46 50.90202 13.66483 34781 ft 475 kts 112°
2026-05-06 18:47 50.88297 13.76432 34773 ft 475 kts 111°
2026-05-06 18:47 50.86389 13.86451 34779 ft 475 kts 111°
2026-05-06 18:48 50.84269 13.96304 34779 ft 469 kts 121°
2026-05-06 18:48 50.80618 14.04593 34776 ft 455 kts 140°
2026-05-06 18:49 50.75996 14.11332 34772 ft 452 kts 143°
2026-05-06 18:49 50.71379 14.17985 34762 ft 453 kts 143°
2026-05-06 18:50 50.66722 14.24704 34774 ft 454 kts 143°
2026-05-06 18:50 50.62058 14.31402 34768 ft 454 kts 143°
2026-05-06 18:51 50.57385 14.38071 34769 ft 453 kts 143°
2026-05-06 18:51 50.52718 14.44719 34769 ft 453 kts 143°
2026-05-06 18:52 50.48045 14.51351 34745 ft 453 kts 144°
2026-05-06 18:52 50.43410 14.58028 34776 ft 453 kts 142°
2026-05-06 18:53 50.38891 14.64928 34770 ft 454 kts 141°
2026-05-06 18:53 50.34429 14.71814 34769 ft 453 kts 141°
2026-05-06 18:54 50.29908 14.78685 34765 ft 453 kts 142°
2026-05-06 18:54 50.25360 14.85504 34766 ft 453 kts 142°
2026-05-06 18:55 50.20808 14.92312 34764 ft 454 kts 142°
2026-05-06 18:55 50.16250 14.99135 34763 ft 454 kts 142°
2026-05-06 18:56 50.11729 15.05907 34766 ft 454 kts 142°
2026-05-06 18:56 50.07162 15.12702 34766 ft 454 kts 142°
2026-05-06 18:57 50.02590 15.19485 34760 ft 454 kts 142°
2026-05-06 18:57 49.98011 15.26261 34763 ft 455 kts 143°
2026-05-06 18:58 49.93447 15.32993 34757 ft 455 kts 143°
2026-05-06 18:58 49.88861 15.39763 34759 ft 455 kts 143°
2026-05-06 18:59 49.84248 15.46542 34758 ft 455 kts 143°
2026-05-06 18:59 49.79681 15.53224 34755 ft 454 kts 144°
2026-05-06 19:00 49.75091 15.59909 34755 ft 453 kts 144°
2026-05-06 19:00 49.70496 15.66591 34753 ft 453 kts 144°
2026-05-06 19:01 49.65905 15.73261 34749 ft 453 kts 144°
2026-05-06 19:01 49.63608 15.76591 34541 ft 453 kts 144°
2026-05-06 19:01 49.61310 15.79921 34297 ft 453 kts 144°
2026-05-06 19:01 49.59010 15.83244 34052 ft 453 kts 145°
2026-05-06 19:02 49.56710 15.86563 33815 ft 453 kts 145°
2026-05-06 19:02 49.54413 15.89878 33509 ft 453 kts 145°
2026-05-06 19:02 49.52139 15.93154 33234 ft 454 kts 144°
2026-05-06 19:02 49.49827 15.96477 32968 ft 455 kts 144°
2026-05-06 19:03 49.47512 15.99799 32694 ft 456 kts 144°
2026-05-06 19:03 49.45190 16.03128 32428 ft 457 kts 144°
2026-05-06 19:03 49.42867 16.06461 32165 ft 457 kts 144°
2026-05-06 19:03 49.40536 16.09800 31911 ft 458 kts 144°
2026-05-06 19:04 49.38204 16.13137 31653 ft 459 kts 144°
2026-05-06 19:04 49.35865 16.16476 31392 ft 460 kts 144°
2026-05-06 19:04 49.33519 16.19813 31133 ft 460 kts 144°
2026-05-06 19:04 49.31080 16.22944 30859 ft 455 kts 151°
2026-05-06 19:05 49.28435 16.25418 30617 ft 449 kts 160°
2026-05-06 19:05 49.25619 16.27494 30356 ft 450 kts 161°
2026-05-06 19:05 49.22793 16.29573 30111 ft 451 kts 160°
2026-05-06 19:05 49.19965 16.31662 29887 ft 453 kts 160°
2026-05-06 19:06 49.17125 16.33767 29610 ft 453 kts 160°
2026-05-06 19:06 49.14292 16.35872 29320 ft 453 kts 160°
2026-05-06 19:06 49.11454 16.37978 29041 ft 454 kts 160°
2026-05-06 19:06 49.08611 16.40078 28691 ft 453 kts 160°
2026-05-06 19:07 49.05772 16.42166 28131 ft 453 kts 160°
2026-05-06 19:07 49.02929 16.44248 27587 ft 454 kts 160°
2026-05-06 19:07 49.00118 16.46303 26924 ft 455 kts 160°
2026-05-06 19:07 48.97255 16.48394 25981 ft 458 kts 159°
2026-05-06 19:08 48.94377 16.50499 24876 ft 460 kts 159°
2026-05-06 19:08 48.91507 16.52599 23763 ft 455 kts 159°
2026-05-06 19:08 48.88685 16.54668 22480 ft 447 kts 159°
2026-05-06 19:08 48.85910 16.56703 21167 ft 438 kts 158°
2026-05-06 19:09 48.83187 16.58693 19906 ft 431 kts 158°
2026-05-06 19:09 48.80505 16.60647 18698 ft 424 kts 158°
2026-05-06 19:09 48.77807 16.62273 17451 ft 412 kts 167°
2026-05-06 19:09 48.75043 16.63216 16740 ft 407 kts 172°
2026-05-06 19:10 48.72298 16.64080 16754 ft 409 kts 171°
2026-05-06 19:10 48.69514 16.64993 16759 ft 410 kts 171°
2026-05-06 19:10 48.66734 16.65925 16757 ft 410 kts 171°
2026-05-06 19:10 48.63948 16.66861 16757 ft 410 kts 171°
2026-05-06 19:11 48.61165 16.67790 16760 ft 410 kts 171°
2026-05-06 19:11 48.58376 16.68711 16755 ft 410 kts 171°
2026-05-06 19:11 48.55594 16.69642 16757 ft 410 kts 170°
2026-05-06 19:11 48.52819 16.70627 16759 ft 410 kts 169°
2026-05-06 19:12 48.50054 16.71648 16766 ft 410 kts 169°
2026-05-06 19:12 48.47287 16.72689 16576 ft 408 kts 169°
2026-05-06 19:12 48.44583 16.73705 16016 ft 404 kts 169°
2026-05-06 19:12 48.41868 16.74718 15470 ft 400 kts 169°
2026-05-06 19:13 48.39173 16.75712 14938 ft 397 kts 169°
2026-05-06 19:13 48.36503 16.76686 14400 ft 392 kts 169°
2026-05-06 19:13 48.33862 16.77635 13888 ft 388 kts 169°
2026-05-06 19:13 48.31234 16.78560 13348 ft 386 kts 169°
2026-05-06 19:14 48.28640 16.79469 12874 ft 382 kts 169°
2026-05-06 19:14 48.26047 16.80376 12750 ft 383 kts 169°
2026-05-06 19:14 48.23446 16.81289 12566 ft 383 kts 169°
2026-05-06 19:14 48.20902 16.82181 11985 ft 380 kts 169°
2026-05-06 19:15 48.18336 16.83085 11406 ft 378 kts 169°
2026-05-06 19:15 48.15784 16.83973 10830 ft 375 kts 172°
2026-05-06 19:15 48.13217 16.84164 10280 ft 367 kts 188°
2026-05-06 19:15 48.10782 16.83191 9803 ft 360 kts 205°
2026-05-06 19:16 48.08787 16.81306 9343 ft 323 kts 221°
2026-05-06 19:16 48.07361 16.78911 8849 ft 295 kts 235°
2026-05-06 19:16 48.06474 16.76295 8361 ft 276 kts 248°
2026-05-06 19:16 48.06056 16.73584 8043 ft 263 kts 260°
2026-05-06 19:17 48.06225 16.70854 7997 ft 271 kts 285°
2026-05-06 19:17 48.07266 16.68464 8005 ft 284 kts 312°
2026-05-06 19:17 48.09001 16.66953 8014 ft 297 kts 339°
2026-05-06 19:17 48.11070 16.66544 8009 ft 303 kts 354°
2026-05-06 19:18 48.13186 16.66459 8006 ft 305 kts 355°
2026-05-06 19:18 48.15310 16.66403 8006 ft 306 kts 355°
2026-05-06 19:18 48.17435 16.66359 8006 ft 306 kts 355°
2026-05-06 19:18 48.19566 16.66313 8005 ft 306 kts 355°
2026-05-06 19:19 48.21693 16.66270 8004 ft 306 kts 355°
2026-05-06 19:19 48.23774 16.66103 7956 ft 303 kts 349°
2026-05-06 19:19 48.25856 16.65612 7431 ft 298 kts 346°
2026-05-06 19:19 48.27853 16.65099 6960 ft 284 kts 345°
2026-05-06 19:20 48.29761 16.64621 6491 ft 273 kts 345°
2026-05-06 19:20 48.31606 16.64170 6067 ft 264 kts 346°
2026-05-06 19:20 48.33416 16.63717 5839 ft 264 kts 346°
2026-05-06 19:20 48.35217 16.63253 5460 ft 264 kts 346°
2026-05-06 19:21 48.37022 16.62791 5094 ft 262 kts 345°
2026-05-06 19:21 48.38813 16.62342 4986 ft 260 kts 346°
2026-05-06 19:21 48.40560 16.61843 4984 ft 256 kts 337°
2026-05-06 19:21 48.42034 16.60660 4985 ft 230 kts 318°
2026-05-06 19:22 48.43291 16.59217 5003 ft 223 kts 309°
2026-05-06 19:22 48.43981 16.57281 4988 ft 205 kts 275°
2026-05-06 19:22 48.43906 16.55181 4981 ft 201 kts 258°
2026-05-06 19:22 48.43629 16.53118 4981 ft 201 kts 256°
2026-05-06 19:23 48.43325 16.51063 4982 ft 201 kts 252°
2026-05-06 19:23 48.42604 16.49337 4986 ft 191 kts 219°
2026-05-06 19:23 48.41482 16.48402 4983 ft 182 kts 207°
2026-05-06 19:23 48.40343 16.47640 4986 ft 182 kts 206°
2026-05-06 19:24 48.39174 16.46928 4985 ft 181 kts 199°
2026-05-06 19:24 48.37914 16.46809 4986 ft 186 kts 176°
2026-05-06 19:24 48.36652 16.47308 4989 ft 188 kts 169°
2026-05-06 19:24 48.35396 16.47851 4989 ft 187 kts 169°
2026-05-06 19:25 48.34138 16.48390 4949 ft 189 kts 169°
2026-05-06 19:25 48.32872 16.48932 4767 ft 189 kts 169°
2026-05-06 19:25 48.31613 16.49470 4552 ft 188 kts 170°
2026-05-06 19:25 48.30362 16.50004 4301 ft 186 kts 170°
2026-05-06 19:26 48.29143 16.50524 4058 ft 184 kts 170°
2026-05-06 19:26 48.27923 16.51044 3802 ft 180 kts 171°
2026-05-06 19:26 48.26751 16.51545 3564 ft 171 kts 171°
2026-05-06 19:26 48.25619 16.52027 3347 ft 167 kts 171°
2026-05-06 19:27 48.24510 16.52498 3136 ft 165 kts 171°
2026-05-06 19:27 48.23416 16.52963 2917 ft 162 kts 171°
2026-05-06 19:27 48.22339 16.53421 2708 ft 159 kts 172°
2026-05-06 19:27 48.21238 16.53886 2487 ft 164 kts 171°
2026-05-06 19:28 48.20211 16.54329 2290 ft 144 kts 172°
2026-05-06 19:28 48.19272 16.54726 2120 ft 142 kts 171°
2026-05-06 19:28 48.18294 16.55137 1913 ft 150 kts 170°
2026-05-06 19:28 48.17278 16.55568 1708 ft 154 kts 169°
2026-05-06 19:29 48.16276 16.55994 1505 ft 142 kts 167°
2026-05-06 19:29 48.15404 16.56366 1330 ft 123 kts 167°
2026-05-06 19:29 48.14600 16.56708 1183 ft 116 kts 168°
2026-05-06 19:29 48.13845 16.57027 1042 ft 112 kts 166°
2026-05-06 19:30 48.13088 16.57342 837 ft 112 kts 163°
2026-05-06 19:30 48.12337 16.57668 713 ft 112 kts 163°
2026-05-06 19:30 48.11593 16.57980 630 ft 110 kts 165°
2026-05-06 19:30 48.10949 16.58244 617 ft 96 kts 163°
2026-05-06 19:31 48.10167 16.58603 616 ft 114 kts 163°
2026-05-06 19:31 48.09595 16.58828 613 ft 69 kts 165°
2026-05-06 19:31 48.08970 16.59010 613 ft 24 kts 219°
2026-05-06 19:32 48.08921 16.58808 610 ft 19 kts 281°
2026-05-06 19:32 48.08967 16.58684 617 ft 20 kts 319°
2026-05-06 19:32 48.09062 16.58628 617 ft 19 kts 346°
2026-05-06 19:32 48.09276 16.58539 612 ft 32 kts 343°
2026-05-06 19:33 48.09491 16.58449 619 ft 32 kts 345°
2026-05-06 19:33 48.09698 16.58364 615 ft 31 kts 344°
2026-05-06 19:33 48.09903 16.58277 615 ft 30 kts 344°
2026-05-06 19:33 48.10089 16.58197 619 ft 24 kts 344°
2026-05-06 19:34 48.10220 16.58142 620 ft 1 kts 345°
2026-05-06 19:38 48.10229 16.58138 612 ft 6 kts 345°
2026-05-06 19:39 48.10323 16.58100 612 ft 8 kts 345°
2026-05-06 19:39 48.10329 16.58098 612 ft 0 kts 345°
2026-05-06 19:39 48.10350 16.58089 610 ft 13 kts 344°
2026-05-06 19:39 48.10421 16.58060 621 ft 1 kts 345°
2026-05-06 19:40 48.10457 16.58046 622 ft 21 kts 345°
2026-05-06 19:41 48.10636 16.57975 615 ft 18 kts 343°
2026-05-06 19:41 48.10696 16.57948 615 ft 6 kts 343°
2026-05-06 19:41 48.10716 16.57938 618 ft 9 kts 342°
2026-05-06 19:41 48.10864 16.57871 616 ft 26 kts 343°
2026-05-06 19:42 48.10993 16.57814 617 ft 0 kts 343°
2026-05-06 19:42 48.11021 16.57797 613 ft 11 kts 335°
2026-05-06 19:42 48.11092 16.57742 616 ft 12 kts 334°
2026-05-06 19:42 48.11114 16.57665 610 ft 10 kts 271°
2026-05-06 19:43 48.11170 16.57389 619 ft 38 kts 295°
2026-05-06 19:43 48.11281 16.57011 614 ft 42 kts 292°
2026-05-06 19:43 48.11413 16.56644 610 ft 41 kts 302°
2026-05-06 19:43 48.11558 16.56269 618 ft 37 kts 295°
2026-05-06 19:44 48.11660 16.55892 610 ft 41 kts 292°
2026-05-06 19:44 48.11785 16.55493 610 ft 44 kts 294°
2026-05-06 19:44 48.11923 16.55081 616 ft 30 kts 296°
2026-05-06 19:44 48.11948 16.55049 617 ft 3 kts 356°
2026-05-06 19:45 48.12008 16.55147 610 ft 29 kts 47°
2026-05-06 19:45 48.12107 16.55239 610 ft 8 kts 339°
2026-05-06 19:45 48.12133 16.55176 611 ft 0 kts 296°